Zurück zum Katalog

STARLINK-37936

AktivKommunikationSSO
NORAD 69563·PAYLOAD·🇺🇸 United States

Gestartet Jun 15, 2026 von Vandenberg Space Force Base

Loading…

Nächste Überflüge (nächste 24 Stunden)

TLE

AktuellSource: CelesTrak SupGP

Epoche: Sep 15, 2026, 03:02 UTC

1 69563C 26135T   26258.12687500 -.00044615  00000+0 -13850-2 0  2586
2 69563  97.2837 285.9307 0001049  89.7548 116.7837 15.33460395    19

Verfolge STARLINK-37936 in Echtzeit mit AllMySat

Download on the App Store